1998-067RU

Last updated on Wed Jan 05 2022 00:02:04 GMT+0000 (Coordinated Universal Time)

1 46924U 98067RU 21364.52205359 .10130901 12344-4 11628-2 0 9995 2 46924 51.6112 48.4105 0003339 2.1676 357.9363 16.36049955 65730

Satellite not in orbit